Time,TemperatureF,DewpointF,PressureIn,WindDirection,WindDirectionDegrees,WindSpeedMPH,WindSpeedGustMPH,Humidity,HourlyPrecipIn,Conditions,Clouds,dailyrainin,SolarRadiationWatts/m^2,SoftwareType,DateUTC
2013-08-08 00:01:00,64.3,58.7,30.11,SSW,200,0.0,0.0,82,0.00,,BKN075,0.00,0.00,VWS V14.01,2013-08-08 04:01:00,
2013-08-08 00:02:00,64.3,58.7,30.11,SSW,201,0.0,0.0,82,0.00,,BKN075,0.00,0.00,VWS V14.01,2013-08-08 04:02:00,
2013-08-08 00:07:00,64.3,58.7,30.11,SSW,200,0.0,4.0,82,0.00,,BKN075,0.00,0.00,VWS V14.01,2013-08-08 04:07:00,
2013-08-08 00:12:00,64.3,58.7,30.11,SSW,200,1.0,2.0,82,0.00,,BKN075,0.00,0.00,VWS V14.01,2013-08-08 04:12:00,
2013-08-08 00:17:00,64.3,58.7,30.11,SSW,200,0.0,4.0,82,0.00,,BKN075,0.00,0.00,VWS V14.01,2013-08-08 04:17:00,
2013-08-08 00:22:00,64.2,58.9,30.11,SSW,200,1.0,2.0,83,0.00,,BKN075,0.00,0.00,VWS V14.01,2013-08-08 04:22:00,
2013-08-08 00:27:00,64.2,58.6,30.11,SSW,207,0.0,3.0,82,0.00,,BKN075,0.00,0.00,VWS V14.01,2013-08-08 04:27:00,
2013-08-08 00:32:00,64.2,58.9,30.11,SSW,207,0.0,1.0,83,0.00,,BKN075,0.00,0.00,VWS V14.01,2013-08-08 04:32:00,
2013-08-08 00:37:00,64.3,59.0,30.11,SSW,207,0.0,2.0,83,0.00,,BKN075,0.00,0.00,VWS V14.01,2013-08-08 04:37:00,
2013-08-08 00:42:00,64.3,58.7,30.11,SSW,207,0.0,3.0,82,0.00,,BKN075,0.00,0.00,VWS V14.01,2013-08-08 04:42:00,
2013-08-08 00:47:00,64.3,58.7,30.11,SSW,207,0.0,3.0,82,0.00,,BKN075,0.00,0.00,VWS V14.01,2013-08-08 04:47:00,
2013-08-08 00:52:00,64.3,58.3,30.11,SSW,207,2.0,3.0,81,0.00,,BKN075,0.00,0.00,VWS V14.01,2013-08-08 04:52:00,
2013-08-08 00:57:00,64.3,58.3,30.10,SSW,213,1.0,3.0,81,0.00,,BKN075,0.00,0.00,VWS V14.01,2013-08-08 04:57:00,
2013-08-08 01:02:00,64.3,58.0,30.10,South,190,0.0,5.0,80,0.00,,OVC060,0.00,0.00,VWS V14.01,2013-08-08 05:02:00,
2013-08-08 01:07:00,64.3,58.3,30.10,South,190,0.0,5.0,81,0.00,,OVC060,0.00,0.00,VWS V14.01,2013-08-08 05:07:00,
2013-08-08 01:12:00,64.3,58.3,30.10,South,186,2.0,4.0,81,0.00,,OVC060,0.00,0.00,VWS V14.01,2013-08-08 05:12:00,
2013-08-08 01:17:00,64.3,58.0,30.10,SSW,198,1.0,4.0,80,0.00,,OVC060,0.00,0.00,VWS V14.01,2013-08-08 05:17:00,
2013-08-08 01:22:00,64.3,58.3,30.10,SSW,198,0.0,1.0,81,0.00,,OVC060,0.00,0.00,VWS V14.01,2013-08-08 05:22:00,
2013-08-08 01:27:00,64.2,58.6,30.10,SSW,198,0.0,2.0,82,0.00,,OVC060,0.00,0.00,VWS V14.01,2013-08-08 05:27:00,
2013-08-08 01:32:00,64.2,58.3,30.10,SSW,198,0.0,0.0,81,0.00,,OVC060,0.00,0.00,VWS V14.01,2013-08-08 05:32:00,
2013-08-08 01:37:00,64.2,58.3,30.10,SSW,198,0.0,2.0,81,0.00,,OVC060,0.00,0.00,VWS V14.01,2013-08-08 05:37:00,
2013-08-08 01:42:00,64.2,58.6,30.10,SSW,198,0.0,0.0,82,0.00,,OVC060,0.00,0.00,VWS V14.01,2013-08-08 05:42:00,
2013-08-08 01:47:00,64.2,58.6,30.10,SSW,198,0.0,2.0,82,0.00,,OVC060,0.00,0.00,VWS V14.01,2013-08-08 05:47:00,
2013-08-08 01:52:00,64.2,58.3,30.10,SSW,198,1.0,3.0,81,0.00,,OVC060,0.00,0.00,VWS V14.01,2013-08-08 05:52:00,
2013-08-08 01:57:00,64.2,58.3,30.09,SSW,198,0.0,3.0,81,0.00,,OVC060,0.00,0.00,VWS V14.01,2013-08-08 05:57:00,
2013-08-08 02:02:00,64.2,58.3,30.10,SSW,198,0.0,0.0,81,0.00,,OVC039,0.00,0.00,VWS V14.01,2013-08-08 06:02:00,
2013-08-08 02:07:00,64.2,58.6,30.09,South,191,0.0,5.0,82,0.00,,OVC039,0.00,0.00,VWS V14.01,2013-08-08 06:07:00,
2013-08-08 02:12:00,64.2,58.3,30.10,South,191,0.0,0.0,81,0.00,,OVC039,0.00,0.00,VWS V14.01,2013-08-08 06:12:00,
2013-08-08 02:17:00,64.2,58.3,30.09,South,191,1.0,3.0,81,0.00,,OVC039,0.00,0.00,VWS V14.01,2013-08-08 06:17:00,
2013-08-08 02:22:00,64.2,58.6,30.09,South,191,0.0,0.0,82,0.00,,OVC039,0.00,0.00,VWS V14.01,2013-08-08 06:22:00,
2013-08-08 02:27:00,64.2,58.6,30.09,South,191,0.0,3.0,82,0.00,,OVC039,0.00,0.00,VWS V14.01,2013-08-08 06:27:00,
2013-08-08 02:32:00,64.2,58.6,30.09,South,191,2.0,2.0,82,0.00,,OVC039,0.00,0.00,VWS V14.01,2013-08-08 06:32:00,
2013-08-08 02:37:00,64.2,58.6,30.09,South,191,0.0,3.0,82,0.00,,OVC039,0.00,0.00,VWS V14.01,2013-08-08 06:37:00,
2013-08-08 02:43:00,64.2,58.9,30.09,South,191,0.0,0.0,83,0.00,,OVC039,0.00,0.00,VWS V14.01,2013-08-08 06:43:00,
2013-08-08 02:48:00,64.2,58.9,30.09,South,191,3.0,5.0,83,0.00,,OVC039,0.00,0.00,VWS V14.01,2013-08-08 06:48:00,
2013-08-08 02:53:00,64.2,58.6,30.09,South,191,0.0,3.0,82,0.00,,OVC039,0.00,0.00,VWS V14.01,2013-08-08 06:53:00,
2013-08-08 02:58:00,64.2,58.9,30.09,South,191,1.0,3.0,83,0.00,,OVC039,0.00,0.00,VWS V14.01,2013-08-08 06:58:00,
2013-08-08 03:03:00,64.2,58.6,30.09,South,191,0.0,2.0,82,0.00,,OVC027,0.00,0.00,VWS V14.01,2013-08-08 07:03:00,
2013-08-08 03:08:00,64.2,58.9,30.09,South,191,0.0,2.0,83,0.00,,OVC027,0.00,0.00,VWS V14.01,2013-08-08 07:08:00,
2013-08-08 03:13:00,64.3,59.0,30.09,South,191,0.0,2.0,83,0.00,,OVC027,0.00,0.00,VWS V14.01,2013-08-08 07:13:00,
2013-08-08 03:18:00,64.3,59.0,30.09,South,191,0.0,2.0,83,0.00,,OVC027,0.00,0.00,VWS V14.01,2013-08-08 07:18:00,
2013-08-08 03:23:00,64.3,59.0,30.09,South,191,0.0,2.0,83,0.00,,OVC027,0.00,0.00,VWS V14.01,2013-08-08 07:23:00,
2013-08-08 03:28:00,64.3,59.0,30.09,SSE,150,1.0,3.0,83,0.00,,OVC027,0.00,0.00,VWS V14.01,2013-08-08 07:28:00,
2013-08-08 03:33:00,64.3,59.4,30.08,SSE,150,0.0,1.0,84,0.00,,OVC027,0.00,0.00,VWS V14.01,2013-08-08 07:33:00,
2013-08-08 03:38:00,64.3,59.0,30.08,SSE,150,0.0,2.0,83,0.00,,OVC027,0.00,0.00,VWS V14.01,2013-08-08 07:38:00,
2013-08-08 03:43:00,64.3,59.4,30.08,SSE,150,0.0,2.0,84,0.00,,OVC027,0.00,0.00,VWS V14.01,2013-08-08 07:43:00,
2013-08-08 03:48:00,64.3,59.4,30.08,SSE,150,0.0,2.0,84,0.00,,OVC027,0.00,0.00,VWS V14.01,2013-08-08 07:48:00,
2013-08-08 03:53:00,64.3,59.4,30.08,SSE,150,0.0,1.0,84,0.00,,OVC027,0.00,0.00,VWS V14.01,2013-08-08 07:53:00,
2013-08-08 03:58:00,64.2,59.3,30.08,SSE,158,2.0,2.0,84,0.00,,OVC027,0.00,0.00,VWS V14.01,2013-08-08 07:58:00,
2013-08-08 04:03:00,64.3,59.4,30.08,SSE,158,0.0,3.0,84,0.00,,OVC025,0.00,0.00,VWS V14.01,2013-08-08 08:03:00,
2013-08-08 04:08:00,64.3,59.7,30.08,SSE,158,1.0,3.0,85,0.00,,OVC025,0.00,0.00,VWS V14.01,2013-08-08 08:08:00,
2013-08-08 04:13:00,64.3,59.7,30.07,SSE,158,1.0,2.0,85,0.00,,OVC025,0.00,0.00,VWS V14.01,2013-08-08 08:13:00,
2013-08-08 04:18:00,64.3,59.7,30.07,SSE,158,0.0,3.0,85,0.00,,OVC025,0.00,0.00,VWS V14.01,2013-08-08 08:18:00,
2013-08-08 04:23:00,64.3,59.7,30.07,SSW,195,0.0,1.0,85,0.00,,OVC025,0.00,0.00,VWS V14.01,2013-08-08 08:23:00,
2013-08-08 04:28:00,64.3,59.7,30.07,SSW,195,0.0,3.0,85,0.00,,OVC025,0.00,0.00,VWS V14.01,2013-08-08 08:28:00,
2013-08-08 04:33:00,64.3,60.0,30.07,SSW,195,0.0,0.0,86,0.00,,OVC025,0.00,0.00,VWS V14.01,2013-08-08 08:33:00,
2013-08-08 04:38:00,64.3,60.0,30.07,SSW,195,0.0,2.0,86,0.00,,OVC025,0.00,0.00,VWS V14.01,2013-08-08 08:38:00,
2013-08-08 04:43:00,64.3,60.0,30.07,SSW,195,0.0,1.0,86,0.00,,OVC025,0.00,0.00,VWS V14.01,2013-08-08 08:43:00,
2013-08-08 04:48:00,64.4,60.1,30.07,SSW,195,0.0,1.0,86,0.00,,OVC025,0.00,0.00,VWS V14.01,2013-08-08 08:48:00,
2013-08-08 04:53:00,64.4,60.1,30.07,SSW,195,0.0,0.0,86,0.00,,OVC025,0.00,0.00,VWS V14.01,2013-08-08 08:53:00,
2013-08-08 04:58:00,64.5,60.2,30.06,SSW,195,0.0,2.0,86,0.00,,OVC025,0.00,0.00,VWS V14.01,2013-08-08 08:58:00,
2013-08-08 05:03:00,64.5,60.5,30.06,SSW,195,0.0,0.0,87,0.00,,OVC021,0.00,0.00,VWS V14.01,2013-08-08 09:03:00,
2013-08-08 05:08:00,64.5,60.5,30.06,SSW,195,1.0,2.0,87,0.00,,OVC021,0.00,0.00,VWS V14.01,2013-08-08 09:08:00,
2013-08-08 05:13:00,64.5,60.5,30.06,SSW,195,0.0,3.0,87,0.00,,OVC021,0.00,0.00,VWS V14.01,2013-08-08 09:13:00,
2013-08-08 05:18:00,64.5,60.5,30.06,South,181,0.0,3.0,87,0.00,,OVC021,0.00,0.00,VWS V14.01,2013-08-08 09:18:00,
2013-08-08 05:23:00,64.5,60.5,30.06,SSW,195,0.0,2.0,87,0.00,,OVC021,0.00,0.00,VWS V14.01,2013-08-08 09:23:00,
2013-08-08 05:28:00,64.5,60.9,30.06,SSW,195,0.0,3.0,88,0.00,,OVC021,0.00,0.00,VWS V14.01,2013-08-08 09:28:00,
2013-08-08 05:33:00,64.6,61.0,30.06,SSW,195,0.0,0.0,88,0.00,,OVC021,0.00,0.00,VWS V14.01,2013-08-08 09:33:00,
2013-08-08 05:38:00,64.5,61.2,30.06,SSW,195,0.0,2.0,89,0.00,,OVC021,0.00,0.00,VWS V14.01,2013-08-08 09:38:00,
2013-08-08 05:43:00,64.5,61.2,30.06,SSW,195,0.0,0.0,89,0.00,,OVC021,0.00,0.00,VWS V14.01,2013-08-08 09:43:00,
2013-08-08 05:48:00,64.4,61.1,30.06,SSW,195,0.0,1.0,89,0.00,,OVC021,0.00,0.00,VWS V14.01,2013-08-08 09:48:00,
2013-08-08 05:53:00,64.4,61.4,30.06,SSW,195,1.0,2.0,90,0.00,,OVC021,0.00,0.00,VWS V14.01,2013-08-08 09:53:00,
2013-08-08 05:58:00,64.4,61.4,30.06,SSE,165,0.0,3.0,90,0.00,,OVC021,0.00,0.00,VWS V14.01,2013-08-08 09:58:00,
2013-08-08 06:03:00,64.3,61.3,30.06,SSE,165,1.0,1.0,90,0.00,,OVC023,0.00,0.00,VWS V14.01,2013-08-08 10:03:00,
2013-08-08 06:08:00,64.3,61.3,30.06,SSE,165,0.0,4.0,90,0.00,,OVC023,0.00,5.00,VWS V14.01,2013-08-08 10:08:00,
2013-08-08 06:13:00,64.3,61.3,30.06,SSE,165,0.0,4.0,90,0.00,,OVC023,0.00,5.00,VWS V14.01,2013-08-08 10:13:00,
2013-08-08 06:18:00,64.3,61.6,30.06,SSE,165,0.0,4.0,91,0.00,,OVC023,0.00,12.00,VWS V14.01,2013-08-08 10:18:00,
2013-08-08 06:23:00,64.3,61.6,30.06,SSE,165,3.0,3.0,91,0.00,,OVC023,0.00,11.00,VWS V14.01,2013-08-08 10:23:00,
2013-08-08 06:28:00,64.4,61.7,30.06,SSW,200,1.0,3.0,91,0.00,,OVC023,0.00,14.00,VWS V14.01,2013-08-08 10:28:00,
2013-08-08 06:33:00,64.5,61.8,30.06,SSW,194,1.0,4.0,91,0.00,,OVC023,0.00,18.00,VWS V14.01,2013-08-08 10:33:00,
2013-08-08 06:38:00,64.5,61.8,30.06,SSW,196,2.0,5.0,91,0.00,,OVC023,0.00,26.00,VWS V14.01,2013-08-08 10:38:00,
2013-08-08 06:43:00,64.7,62.0,30.06,SSW,196,0.0,3.0,91,0.00,,OVC023,0.00,33.00,VWS V14.01,2013-08-08 10:43:00,
2013-08-08 06:48:00,64.8,62.1,30.06,SSW,196,0.0,4.0,91,0.00,,OVC023,0.00,30.00,VWS V14.01,2013-08-08 10:48:00,
2013-08-08 06:53:00,64.9,62.2,30.06,South,180,0.0,3.0,91,0.00,,OVC023,0.00,35.00,VWS V14.01,2013-08-08 10:53:00,
2013-08-08 06:58:00,65.0,62.3,30.06,South,183,0.0,5.0,91,0.00,,OVC023,0.00,58.00,VWS V14.01,2013-08-08 10:58:00,
2013-08-08 07:03:00,65.1,62.7,30.06,South,179,2.0,4.0,92,0.00,,OVC021,0.00,77.00,VWS V14.01,2013-08-08 11:03:00,
2013-08-08 07:08:00,65.3,62.6,30.06,SSW,196,0.0,4.0,91,0.00,,OVC021,0.00,109.00,VWS V14.01,2013-08-08 11:08:00,
2013-08-08 07:13:00,65.5,62.8,30.06,SSW,200,0.0,4.0,91,0.00,,OVC021,0.00,118.00,VWS V14.01,2013-08-08 11:13:00,
2013-08-08 07:18:00,65.7,63.3,30.07,SSW,200,1.0,4.0,92,0.00,,OVC021,0.00,135.00,VWS V14.01,2013-08-08 11:18:00,
2013-08-08 07:23:00,66.0,63.3,30.07,South,188,1.0,2.0,91,0.00,,OVC021,0.00,83.00,VWS V14.01,2013-08-08 11:23:00,
2013-08-08 07:28:00,66.1,63.4,30.07,South,182,1.0,3.0,91,0.00,,OVC021,0.00,93.00,VWS V14.01,2013-08-08 11:28:00,
2013-08-08 07:33:00,66.2,63.5,30.07,South,182,0.0,1.0,91,0.00,,OVC021,0.00,114.00,VWS V14.01,2013-08-08 11:33:00,
2013-08-08 07:38:00,66.3,63.6,30.07,South,182,0.0,2.0,91,0.00,,OVC021,0.00,130.00,VWS V14.01,2013-08-08 11:38:00,
2013-08-08 07:43:00,66.5,63.8,30.07,South,182,0.0,2.0,91,0.00,,OVC021,0.00,176.00,VWS V14.01,2013-08-08 11:43:00,
2013-08-08 07:48:00,66.7,64.0,30.06,SSE,148,0.0,3.0,91,0.00,,OVC021,0.00,214.00,VWS V14.01,2013-08-08 11:48:00,
2013-08-08 07:54:00,67.1,64.4,30.06,West,276,0.0,3.0,91,0.00,,OVC021,0.00,209.00,VWS V14.01,2013-08-08 11:54:00,
2013-08-08 07:59:00,67.3,64.3,30.06,WSW,239,0.0,3.0,90,0.00,,OVC021,0.00,120.00,VWS V14.01,2013-08-08 11:59:00,
2013-08-08 08:04:00,67.5,64.5,30.07,SSW,211,0.0,4.0,90,0.00,,OVC016,0.00,130.00,VWS V14.01,2013-08-08 12:04:00,
2013-08-08 08:09:00,67.6,64.6,30.07,SE,136,0.0,4.0,90,0.00,,OVC016,0.00,58.00,VWS V14.01,2013-08-08 12:09:00,
2013-08-08 08:14:00,67.6,64.9,30.07,SE,138,0.0,2.0,91,0.00,,OVC016,0.00,56.00,VWS V14.01,2013-08-08 12:14:00,
2013-08-08 08:19:00,67.6,64.6,30.07,SE,138,0.0,2.0,90,0.00,,OVC014,0.00,35.00,VWS V14.01,2013-08-08 12:19:00,
2013-08-08 08:24:00,67.5,64.5,30.07,SSE,155,0.0,6.0,90,0.00,,OVC014,0.00,40.00,VWS V14.01,2013-08-08 12:24:00,
2013-08-08 08:29:00,67.5,64.8,30.07,SSE,155,0.0,6.0,91,0.00,,OVC014,0.00,58.00,VWS V14.01,2013-08-08 12:29:00,
2013-08-08 08:34:00,67.5,64.8,30.07,SSE,155,0.0,2.0,91,0.00,,OVC014,0.00,58.00,VWS V14.01,2013-08-08 12:34:00,
2013-08-08 08:39:00,67.5,64.8,30.07,SSE,151,2.0,2.0,91,0.00,,OVC014,0.00,72.00,VWS V14.01,2013-08-08 12:39:00,
2013-08-08 08:44:00,67.6,64.9,30.07,SSE,151,0.0,1.0,91,0.00,,OVC014,0.00,93.00,VWS V14.01,2013-08-08 12:44:00,
2013-08-08 08:49:00,67.6,64.9,30.07,SSE,158,0.0,3.0,91,0.00,,OVC014,0.00,49.00,VWS V14.01,2013-08-08 12:49:00,
2013-08-08 08:54:00,67.6,64.9,30.07,SSE,158,0.0,3.0,91,0.00,,OVC014,0.00,37.00,VWS V14.01,2013-08-08 12:54:00,
2013-08-08 08:59:00,67.6,65.2,30.07,SSE,158,1.0,3.0,92,0.00,,OVC014,0.00,95.00,VWS V14.01,2013-08-08 12:59:00,
2013-08-08 09:04:00,67.7,65.3,30.07,SSE,158,0.0,2.0,92,0.00,,OVC012,0.00,42.00,VWS V14.01,2013-08-08 13:04:00,
2013-08-08 09:09:00,67.7,65.3,30.07,SSE,158,0.0,2.0,92,0.00,,OVC012,0.00,142.00,VWS V14.01,2013-08-08 13:09:00,
2013-08-08 09:14:00,67.9,65.5,30.07,SSE,158,1.0,3.0,92,0.00,,OVC012,0.00,111.00,VWS V14.01,2013-08-08 13:14:00,
2013-08-08 09:19:00,68.0,65.6,30.06,SSE,158,0.0,3.0,92,0.00,,OVC012,0.00,127.00,VWS V14.01,2013-08-08 13:19:00,
2013-08-08 09:24:00,68.3,65.9,30.06,SW,217,0.0,4.0,92,0.00,,OVC012,0.00,258.00,VWS V14.01,2013-08-08 13:24:00,
2013-08-08 09:29:00,68.6,66.2,30.07,SW,217,0.0,4.0,92,0.00,,OVC012,0.00,88.00,VWS V14.01,2013-08-08 13:29:00,
2013-08-08 09:34:00,69.0,66.6,30.07,SW,217,0.0,1.0,92,0.00,,BKN033,0.00,269.00,VWS V14.01,2013-08-08 13:34:00,
2013-08-08 09:39:00,69.3,66.9,30.07,SW,217,0.0,2.0,92,0.00,,BKN033,0.00,248.00,VWS V14.01,2013-08-08 13:39:00,
2013-08-08 09:44:00,69.6,66.9,30.07,SSE,163,2.0,3.0,91,0.00,,BKN033,0.00,193.00,VWS V14.01,2013-08-08 13:44:00,
2013-08-08 09:49:00,70.0,67.3,30.07,SSE,163,0.0,3.0,91,0.00,,BKN033,0.00,527.00,VWS V14.01,2013-08-08 13:49:00,
2013-08-08 09:54:00,70.6,67.8,30.07,SSE,163,0.0,1.0,91,0.00,,BKN033,0.00,144.00,VWS V14.01,2013-08-08 13:54:00,
2013-08-08 09:59:00,71.1,68.0,30.07,SSE,163,0.0,1.0,90,0.00,,BKN033,0.00,534.00,VWS V14.01,2013-08-08 13:59:00,
2013-08-08 10:04:00,71.7,68.3,30.07,SSE,164,2.0,3.0,89,0.00,,OVC020,0.00,388.00,VWS V14.01,2013-08-08 14:04:00,
2013-08-08 10:09:00,72.1,68.3,30.07,SSE,164,0.0,3.0,88,0.00,,OVC020,0.00,200.00,VWS V14.01,2013-08-08 14:09:00,
2013-08-08 10:14:00,72.5,68.8,30.06,NW,318,0.0,2.0,88,0.00,,OVC020,0.00,244.00,VWS V14.01,2013-08-08 14:14:00,
2013-08-08 10:19:00,73.2,69.1,30.06,SE,136,1.0,4.0,87,0.00,,OVC020,0.00,622.00,VWS V14.01,2013-08-08 14:19:00,
2013-08-08 10:24:00,73.7,69.6,30.06,South,181,0.0,2.0,87,0.00,,OVC020,0.00,424.00,VWS V14.01,2013-08-08 14:24:00,
2013-08-08 10:29:00,73.9,69.1,30.06,South,169,0.0,3.0,85,0.00,,OVC020,0.00,271.00,VWS V14.01,2013-08-08 14:29:00,
2013-08-08 10:34:00,74.1,69.3,30.06,South,169,0.0,1.0,85,0.00,,OVC020,0.00,406.00,VWS V14.01,2013-08-08 14:34:00,
2013-08-08 10:39:00,74.2,69.8,30.06,South,169,0.0,1.0,86,0.00,,OVC020,0.00,329.00,VWS V14.01,2013-08-08 14:39:00,
2013-08-08 10:44:00,74.6,70.1,30.06,SE,136,0.0,4.0,86,0.00,,OVC020,0.00,582.00,VWS V14.01,2013-08-08 14:44:00,
2013-08-08 10:49:00,75.1,69.6,30.06,SE,145,0.0,5.0,83,0.00,,BKN033,0.00,388.00,VWS V14.01,2013-08-08 14:49:00,
2013-08-08 10:54:00,75.4,69.5,30.06,SE,144,0.0,2.0,82,0.00,,BKN033,0.00,432.00,VWS V14.01,2013-08-08 14:54:00,
2013-08-08 10:59:00,75.9,70.4,30.05,SE,134,0.0,3.0,83,0.00,,BKN033,0.00,455.00,VWS V14.01,2013-08-08 14:59:00,
2013-08-08 11:04:00,76.4,70.9,30.05,SE,134,0.0,2.0,83,0.00,,BKN033,0.00,287.00,VWS V14.01,2013-08-08 15:04:00,
2013-08-08 11:09:00,77.0,71.4,30.05,SE,134,1.0,3.0,83,0.00,,BKN033,0.00,889.00,VWS V14.01,2013-08-08 15:09:00,
2013-08-08 11:14:00,77.6,71.3,30.05,WSW,252,2.0,4.0,81,0.00,,BKN033,0.00,724.00,VWS V14.01,2013-08-08 15:14:00,
2013-08-08 11:19:00,77.9,70.5,30.05,South,180,0.0,4.0,78,0.00,,BKN033,0.00,661.00,VWS V14.01,2013-08-08 15:19:00,
2013-08-08 11:25:00,78.0,70.2,30.04,SSE,164,0.0,4.0,77,0.00,,BKN033,0.00,369.00,VWS V14.01,2013-08-08 15:25:00,
2013-08-08 11:30:00,78.1,70.3,30.04,SSE,164,0.0,4.0,77,0.00,,BKN033,0.00,306.00,VWS V14.01,2013-08-08 15:30:00,
2013-08-08 11:35:00,78.5,71.4,30.04,SSE,167,0.0,3.0,79,0.00,,BKN033,0.00,953.00,VWS V14.01,2013-08-08 15:35:00,
2013-08-08 11:40:00,78.7,70.9,30.04,South,182,0.0,3.0,77,0.00,,BKN033,0.00,443.00,VWS V14.01,2013-08-08 15:40:00,
2013-08-08 11:45:00,78.9,71.1,30.04,SSE,161,0.0,3.0,77,0.00,,BKN033,0.00,394.00,VWS V14.01,2013-08-08 15:45:00,
2013-08-08 11:50:00,78.8,70.6,30.04,South,182,0.0,4.0,76,0.00,,BKN033,0.00,417.00,VWS V14.01,2013-08-08 15:50:00,
2013-08-08 11:55:00,78.5,70.3,30.05,SE,136,0.0,4.0,76,0.00,,BKN033,0.00,366.00,VWS V14.01,2013-08-08 15:55:00,
2013-08-08 12:00:00,78.3,70.5,30.04,SE,139,0.0,4.0,77,0.00,,BKN033,0.00,499.00,VWS V14.01,2013-08-08 16:00:00,
2013-08-08 12:05:00,78.4,71.0,30.04,SE,139,0.0,2.0,78,0.00,,BKN033,0.00,427.00,VWS V14.01,2013-08-08 16:05:00,
2013-08-08 12:10:00,78.5,70.7,30.04,SE,139,0.0,2.0,77,0.00,,BKN033,0.00,441.00,VWS V14.01,2013-08-08 16:10:00,
2013-08-08 12:15:00,78.7,70.5,30.04,SE,139,0.0,1.0,76,0.00,,SCT050,0.00,411.00,VWS V14.01,2013-08-08 16:15:00,
2013-08-08 12:20:00,78.9,71.1,30.04,SE,140,2.0,2.0,77,0.00,,SCT050,0.00,396.00,VWS V14.01,2013-08-08 16:20:00,
2013-08-08 12:25:00,78.8,70.2,30.04,SE,132,0.0,6.0,75,0.00,,SCT050,0.00,346.00,VWS V14.01,2013-08-08 16:25:00,
2013-08-08 12:30:00,78.6,70.8,30.04,West,271,0.0,6.0,77,0.00,,SCT050,0.00,520.00,VWS V14.01,2013-08-08 16:30:00,
2013-08-08 12:35:00,78.9,71.8,30.04,West,262,0.0,2.0,79,0.00,,SCT050,0.00,617.00,VWS V14.01,2013-08-08 16:35:00,
2013-08-08 12:40:00,79.4,70.8,30.04,SSW,199,0.0,4.0,75,0.00,,SCT050,0.00,464.00,VWS V14.01,2013-08-08 16:40:00,
2013-08-08 12:45:00,79.6,71.0,30.04,SSE,155,2.0,3.0,75,0.00,,SCT050,0.00,520.00,VWS V14.01,2013-08-08 16:45:00,
2013-08-08 12:50:00,79.6,71.0,30.04,SSE,160,0.0,3.0,75,0.00,,SCT050,0.00,503.00,VWS V14.01,2013-08-08 16:50:00,
2013-08-08 12:55:00,79.4,70.8,30.04,SE,136,0.0,2.0,75,0.00,,SCT050,0.00,258.00,VWS V14.01,2013-08-08 16:55:00,
2013-08-08 13:00:00,79.2,71.0,30.05,SE,136,0.0,2.0,76,0.00,,SCT050,0.00,257.00,VWS V14.01,2013-08-08 17:00:00,
2013-08-08 13:05:00,79.0,71.2,30.05,SE,136,0.0,1.0,77,0.00,,BKN039,0.00,304.00,VWS V14.01,2013-08-08 17:05:00,
2013-08-08 13:10:00,79.2,71.8,30.04,SSE,152,0.0,3.0,78,0.00,,BKN039,0.00,554.00,VWS V14.01,2013-08-08 17:10:00,
2013-08-08 13:15:00,79.6,71.4,30.04,SSE,152,0.0,2.0,76,0.00,,BKN039,0.00,434.00,VWS V14.01,2013-08-08 17:15:00,
2013-08-08 13:20:00,79.9,71.3,30.04,SSE,153,0.0,3.0,75,0.00,,BKN039,0.00,475.00,VWS V14.01,2013-08-08 17:20:00,
2013-08-08 13:25:00,80.1,73.0,30.04,SSE,153,0.0,4.0,79,0.00,,BKN039,0.00,930.00,VWS V14.01,2013-08-08 17:25:00,
2013-08-08 13:30:00,80.5,71.8,30.04,SSE,157,1.0,4.0,75,0.00,,BKN039,0.00,179.00,VWS V14.01,2013-08-08 17:30:00,
2013-08-08 13:35:00,80.2,71.6,30.05,South,189,0.0,3.0,75,0.00,,BKN039,0.00,364.00,VWS V14.01,2013-08-08 17:35:00,
2013-08-08 13:40:00,80.0,72.2,30.04,South,189,0.0,0.0,77,0.00,,BKN039,0.00,487.00,VWS V14.01,2013-08-08 17:40:00,
2013-08-08 13:45:00,80.3,72.1,30.04,ESE,121,0.0,1.0,76,0.00,,BKN039,0.00,346.00,VWS V14.01,2013-08-08 17:45:00,
2013-08-08 13:50:00,80.4,71.8,30.04,South,171,0.0,1.0,75,0.00,,BKN039,0.00,160.00,VWS V14.01,2013-08-08 17:50:00,
2013-08-08 13:55:00,80.0,71.4,30.04,SSE,147,0.0,4.0,75,0.00,,BKN039,0.00,366.00,VWS V14.01,2013-08-08 17:55:00,
2013-08-08 14:00:00,80.0,72.5,30.04,SSE,163,0.0,0.0,78,0.00,,BKN039,0.00,446.00,VWS V14.01,2013-08-08 18:00:00,
2013-08-08 14:05:00,80.2,72.3,30.03,SSE,148,1.0,4.0,77,0.00,,BKN070,0.00,1011.00,VWS V14.01,2013-08-08 18:05:00,
2013-08-08 14:10:00,80.7,72.0,30.03,SSW,196,0.0,0.0,75,0.00,,BKN070,0.00,278.00,VWS V14.01,2013-08-08 18:10:00,
2013-08-08 14:15:00,80.8,72.1,30.03,SSE,158,0.0,4.0,75,0.00,,BKN070,0.00,889.00,VWS V14.01,2013-08-08 18:15:00,
2013-08-08 14:20:00,81.2,72.5,30.03,SW,227,1.0,3.0,75,0.00,,BKN070,0.00,976.00,VWS V14.01,2013-08-08 18:20:00,
2013-08-08 14:25:00,81.7,72.6,30.03,South,185,3.0,4.0,74,0.00,,BKN070,0.00,981.00,VWS V14.01,2013-08-08 18:25:00,
2013-08-08 14:30:00,81.6,71.3,30.03,WSW,241,2.0,3.0,71,0.00,,BKN070,0.00,265.00,VWS V14.01,2013-08-08 18:30:00,
2013-08-08 14:35:00,81.2,72.5,30.03,SW,218,0.0,3.0,75,0.00,,BKN070,0.00,302.00,VWS V14.01,2013-08-08 18:35:00,
2013-08-08 14:40:00,81.3,73.0,30.03,SSE,157,1.0,5.0,76,0.00,,BKN070,0.00,919.00,VWS V14.01,2013-08-08 18:40:00,
2013-08-08 14:45:00,81.8,72.3,30.03,SSE,161,1.0,5.0,73,0.00,,BKN070,0.00,318.00,VWS V14.01,2013-08-08 18:45:00,
2013-08-08 14:51:00,82.1,73.4,30.03,SSE,161,0.0,0.0,75,0.00,,BKN070,0.00,963.00,VWS V14.01,2013-08-08 18:51:00,
2013-08-08 14:56:00,82.3,72.8,30.03,SSE,162,0.0,3.0,73,0.00,,BKN070,0.00,951.00,VWS V14.01,2013-08-08 18:56:00,
2013-08-08 15:01:00,81.9,72.0,30.03,SSE,167,1.0,1.0,72,0.00,,SCT034,0.00,415.00,VWS V14.01,2013-08-08 19:01:00,
2013-08-08 15:06:00,81.6,72.1,30.03,SSE,167,0.0,3.0,73,0.00,,SCT034,0.00,308.00,VWS V14.01,2013-08-08 19:06:00,
2013-08-08 15:11:00,81.4,72.3,30.02,South,178,2.0,2.0,74,0.00,,SCT034,0.00,236.00,VWS V14.01,2013-08-08 19:11:00,
2013-08-08 15:15:00,81.3,72.2,30.03,SE,126,0.0,4.0,74,0.00,,SCT034,0.00,359.00,VWS V14.01,2013-08-08 19:15:00,
2013-08-08 15:20:00,81.5,73.6,30.02,SE,126,0.0,1.0,77,0.00,,SCT034,0.00,805.00,VWS V14.01,2013-08-08 19:20:00,
2013-08-08 15:25:00,81.7,72.2,30.03,SSE,157,0.0,4.0,73,0.00,,SCT034,0.00,258.00,VWS V14.01,2013-08-08 19:25:00,
2013-08-08 15:30:00,81.7,72.2,30.02,SSE,157,0.0,1.0,73,0.00,,SCT034,0.00,424.00,VWS V14.01,2013-08-08 19:30:00,
2013-08-08 15:36:00,82.0,73.3,30.02,South,185,2.0,4.0,75,0.00,,SCT034,0.00,729.00,VWS V14.01,2013-08-08 19:36:00,
2013-08-08 15:41:00,82.1,72.6,30.02,South,173,0.0,1.0,73,0.00,,SCT034,0.00,729.00,VWS V14.01,2013-08-08 19:41:00,
2013-08-08 15:46:00,82.3,72.8,30.02,South,173,0.0,3.0,73,0.00,,SCT034,0.00,719.00,VWS V14.01,2013-08-08 19:46:00,
2013-08-08 15:51:00,82.2,72.3,30.02,SW,230,0.0,0.0,72,0.00,,SCT034,0.00,192.00,VWS V14.01,2013-08-08 19:51:00,
2013-08-08 15:56:00,81.6,71.7,30.02,SSW,211,1.0,4.0,72,0.00,,SCT034,0.00,207.00,VWS V14.01,2013-08-08 19:56:00,
2013-08-08 16:01:00,80.7,70.4,30.02,SE,146,0.0,2.0,71,0.00,,SCT027,0.00,246.00,VWS V14.01,2013-08-08 20:01:00,
2013-08-08 16:06:00,80.4,71.4,30.02,SW,220,0.0,3.0,74,0.00,,SCT027,0.00,350.00,VWS V14.01,2013-08-08 20:06:00,
2013-08-08 16:11:00,80.5,72.6,30.01,SW,220,0.0,3.0,77,0.00,,SCT027,0.00,754.00,VWS V14.01,2013-08-08 20:11:00,
2013-08-08 16:16:00,81.1,72.0,30.02,SW,220,0.0,3.0,74,0.00,,SCT027,0.00,137.00,VWS V14.01,2013-08-08 20:16:00,
2013-08-08 16:21:00,81.2,71.7,30.02,SW,220,1.0,2.0,73,0.00,,SCT027,0.00,592.00,VWS V14.01,2013-08-08 20:21:00,
2013-08-08 16:26:00,81.2,72.1,30.02,SSE,165,0.0,4.0,74,0.00,,SCT027,0.00,355.00,VWS V14.01,2013-08-08 20:26:00,
2013-08-08 16:31:00,81.1,72.0,30.01,SSE,165,0.0,2.0,74,0.00,,SCT027,0.00,197.00,VWS V14.01,2013-08-08 20:31:00,
2013-08-08 16:36:00,81.3,72.6,30.01,SSE,165,0.0,2.0,75,0.00,,SCT027,0.00,134.00,VWS V14.01,2013-08-08 20:36:00,
2013-08-08 16:41:00,81.1,72.0,30.02,SSE,165,0.0,2.0,74,0.00,,SCT027,0.00,176.00,VWS V14.01,2013-08-08 20:41:00,
2013-08-08 16:46:00,80.4,71.4,30.01,SSE,159,0.0,2.0,74,0.00,,SCT027,0.00,121.00,VWS V14.01,2013-08-08 20:46:00,
2013-08-08 16:51:00,80.0,71.4,30.01,SSE,159,0.0,3.0,75,0.00,,SCT027,0.00,288.00,VWS V14.01,2013-08-08 20:51:00,
2013-08-08 16:52:00,80.0,71.8,30.01,SSE,159,0.0,3.0,76,0.00,,SCT027,0.00,288.00,VWS V14.01,2013-08-08 20:52:00,
2013-08-08 16:57:00,80.0,71.4,30.01,SSE,149,1.0,3.0,75,0.00,,SCT027,0.00,471.00,VWS V14.01,2013-08-08 20:57:00,
2013-08-08 17:02:00,80.3,72.1,30.01,SSE,149,0.0,3.0,76,0.00,,SCT110,0.00,448.00,VWS V14.01,2013-08-08 21:02:00,
2013-08-08 17:07:00,80.7,72.0,30.00,SSE,159,0.0,3.0,75,0.00,,SCT110,0.00,417.00,VWS V14.01,2013-08-08 21:07:00,
2013-08-08 17:12:00,81.2,72.1,30.01,SE,144,1.0,1.0,74,0.00,,SCT110,0.00,387.00,VWS V14.01,2013-08-08 21:12:00,
2013-08-08 17:17:00,81.4,72.3,30.01,SE,144,0.0,4.0,74,0.00,,SCT110,0.00,97.00,VWS V14.01,2013-08-08 21:17:00,
2013-08-08 17:22:00,81.2,72.5,30.01,SE,144,0.0,0.0,75,0.00,,SCT110,0.00,120.00,VWS V14.01,2013-08-08 21:22:00,
2013-08-08 17:27:00,80.8,71.7,30.01,SSE,158,1.0,3.0,74,0.00,,SCT110,0.00,128.00,VWS V14.01,2013-08-08 21:27:00,
2013-08-08 17:32:00,80.3,71.7,30.01,SSE,158,0.0,2.0,75,0.00,,SCT110,0.00,288.00,VWS V14.01,2013-08-08 21:32:00,
2013-08-08 17:37:00,80.0,71.8,30.00,SSW,199,0.0,2.0,76,0.00,,SCT110,0.00,244.00,VWS V14.01,2013-08-08 21:37:00,
2013-08-08 17:44:00,79.8,71.6,30.00,SSW,199,0.0,2.0,76,0.00,,SCT110,0.00,114.00,VWS V14.01,2013-08-08 21:44:00,
2013-08-08 17:49:00,79.6,72.1,30.00,SSW,199,0.0,2.0,78,0.00,,SCT110,0.00,93.00,VWS V14.01,2013-08-08 21:49:00,
2013-08-08 17:54:00,79.4,72.3,30.00,SSW,199,2.0,3.0,79,0.00,,SCT110,0.00,81.00,VWS V14.01,2013-08-08 21:54:00,
2013-08-08 18:00:00,78.9,71.8,30.00,SSW,199,0.0,3.0,79,0.00,,SCT110,0.00,70.00,VWS V14.01,2013-08-08 22:00:00,
2013-08-08 18:05:00,78.7,71.6,30.00,SSW,199,0.0,0.0,79,0.00,,SCT110,0.00,67.00,VWS V14.01,2013-08-08 22:05:00,
2013-08-08 18:10:00,78.4,72.1,30.00,SSW,199,0.0,1.0,81,0.00,,SCT110,0.00,79.00,VWS V14.01,2013-08-08 22:10:00,
2013-08-08 18:15:00,78.1,71.4,30.00,SSW,199,0.0,3.0,80,0.00,,SCT110,0.00,86.00,VWS V14.01,2013-08-08 22:15:00,
2013-08-08 18:20:00,77.9,72.0,30.00,SSW,199,0.0,3.0,82,0.00,,SCT110,0.00,84.00,VWS V14.01,2013-08-08 22:20:00,
2013-08-08 18:25:00,77.6,71.7,30.00,SW,221,0.0,3.0,82,0.00,,SCT110,0.00,77.00,VWS V14.01,2013-08-08 22:25:00,
2013-08-08 18:30:00,77.5,71.2,30.00,SW,223,0.0,3.0,81,0.00,,SCT110,0.00,74.00,VWS V14.01,2013-08-08 22:30:00,
2013-08-08 18:36:00,77.3,71.4,30.00,SW,223,0.0,3.0,82,0.00,,SCT110,0.00,81.00,VWS V14.01,2013-08-08 22:36:00,
2013-08-08 18:41:00,77.2,71.3,30.00,SW,223,1.0,2.0,82,0.00,,SCT110,0.00,79.00,VWS V14.01,2013-08-08 22:41:00,
2013-08-08 18:46:00,77.2,71.3,30.00,SW,223,0.0,2.0,82,0.00,,SCT110,0.00,62.00,VWS V14.01,2013-08-08 22:46:00,
2013-08-08 18:51:00,77.1,71.2,30.00,SW,223,0.0,0.0,82,0.00,,SCT110,0.00,54.00,VWS V14.01,2013-08-08 22:51:00,
2013-08-08 18:56:00,76.9,71.3,30.00,SW,223,0.0,2.0,83,0.00,,SCT110,0.00,46.00,VWS V14.01,2013-08-08 22:56:00,
2013-08-08 19:02:00,76.8,71.6,30.00,SW,223,1.0,1.0,84,0.00,,FEW030,0.00,40.00,VWS V14.01,2013-08-08 23:02:00,
2013-08-08 19:07:00,76.6,71.4,30.00,SW,223,0.0,1.0,84,0.00,,FEW030,0.00,33.00,VWS V14.01,2013-08-08 23:07:00,
2013-08-08 19:12:00,76.4,71.2,30.01,SW,223,0.0,0.0,84,0.00,,FEW030,0.00,30.00,VWS V14.01,2013-08-08 23:12:00,
2013-08-08 19:18:00,76.2,71.4,30.01,SW,223,0.0,1.0,85,0.00,,FEW030,0.00,28.00,VWS V14.01,2013-08-08 23:18:00,
2013-08-08 19:23:00,75.9,71.1,30.01,SW,223,0.0,0.0,85,0.00,,FEW030,0.00,25.00,VWS V14.01,2013-08-08 23:23:00,
2013-08-08 19:28:00,75.7,71.2,30.01,SW,223,0.0,0.0,86,0.00,,FEW030,0.00,23.00,VWS V14.01,2013-08-08 23:28:00,
2013-08-08 19:33:00,75.5,71.0,30.01,SW,223,0.0,0.0,86,0.00,,FEW030,0.00,19.00,VWS V14.01,2013-08-08 23:33:00,
2013-08-08 19:38:00,75.3,70.8,30.01,SW,219,0.0,1.0,86,0.00,,FEW030,0.00,12.00,VWS V14.01,2013-08-08 23:38:00,
2013-08-08 19:44:00,75.2,70.7,30.01,SW,219,0.0,1.0,86,0.00,,FEW030,0.00,7.00,VWS V14.01,2013-08-08 23:44:00,
2013-08-08 19:49:00,75.1,70.6,30.02,SW,219,0.0,2.0,86,0.00,,FEW030,0.00,0.00,VWS V14.01,2013-08-08 23:49:00,
2013-08-08 19:54:00,75.0,70.9,30.01,SW,219,0.0,0.0,87,0.00,,FEW030,0.00,0.00,VWS V14.01,2013-08-08 23:54:00,
2013-08-08 19:59:00,74.8,70.7,30.01,SW,219,1.0,3.0,87,0.00,,FEW030,0.00,0.00,VWS V14.01,2013-08-08 23:59:00,
2013-08-08 20:05:00,74.7,70.2,30.02,SSW,205,0.0,3.0,86,0.00,,FEW100,0.00,0.00,VWS V14.01,2013-08-09 00:05:00,
2013-08-08 20:10:00,74.6,70.5,30.02,SSW,205,0.0,3.0,87,0.00,,FEW100,0.00,0.00,VWS V14.01,2013-08-09 00:10:00,
2013-08-08 20:15:00,74.5,70.4,30.02,SSW,205,0.0,2.0,87,0.00,,FEW100,0.00,0.00,VWS V14.01,2013-08-09 00:15:00,
2013-08-08 20:20:00,74.4,70.3,30.02,SSW,205,0.0,2.0,87,0.00,,FEW100,0.00,0.00,VWS V14.01,2013-08-09 00:20:00,
2013-08-08 20:25:00,74.3,70.5,30.02,SSW,201,0.0,0.0,88,0.00,,FEW100,0.00,0.00,VWS V14.01,2013-08-09 00:25:00,
2013-08-08 20:31:00,74.1,70.3,30.02,SSW,201,0.0,0.0,88,0.00,,,0.00,0.00,VWS V14.01,2013-08-09 00:31:00,
2013-08-08 20:36:00,74.0,70.2,30.02,SSW,201,0.0,0.0,88,0.00,,FEW100,0.00,0.00,VWS V14.01,2013-08-09 00:36:00,
2013-08-08 20:41:00,73.9,70.1,30.03,SSW,201,0.0,2.0,88,0.00,,FEW100,0.00,0.00,VWS V14.01,2013-08-09 00:41:00,
2013-08-08 20:46:00,73.8,70.4,30.03,SSW,201,0.0,2.0,89,0.00,,FEW100,0.00,0.00,VWS V14.01,2013-08-09 00:46:00,
2013-08-08 20:51:00,73.7,70.3,30.03,SSW,201,0.0,2.0,89,0.00,,FEW100,0.00,0.00,VWS V14.01,2013-08-09 00:51:00,
2013-08-08 20:56:00,73.6,70.2,30.03,SSW,201,0.0,2.0,89,0.00,,FEW100,0.00,0.00,VWS V14.01,2013-08-09 00:56:00,
2013-08-08 21:01:00,73.5,70.4,30.03,SSW,201,1.0,2.0,90,0.00,,CLR,0.00,0.00,VWS V14.01,2013-08-09 01:01:00,
2013-08-08 21:07:00,73.4,70.3,30.03,SSW,201,0.0,3.0,90,0.00,,CLR,0.00,0.00,VWS V14.01,2013-08-09 01:07:00,
2013-08-08 21:12:00,73.3,70.2,30.03,SSW,196,0.0,2.0,90,0.00,,CLR,0.00,0.00,VWS V14.01,2013-08-09 01:12:00,
2013-08-08 21:17:00,73.3,70.2,30.03,SSW,196,1.0,2.0,90,0.00,,CLR,0.00,0.00,VWS V14.01,2013-08-09 01:17:00,
2013-08-08 21:23:00,73.3,70.2,30.03,SSW,196,0.0,2.0,90,0.00,,CLR,0.00,0.00,VWS V14.01,2013-08-09 01:23:00,
2013-08-08 21:29:00,73.3,70.2,30.03,SSW,196,0.0,2.0,90,0.00,,CLR,0.00,0.00,VWS V14.01,2013-08-09 01:29:00,
2013-08-08 21:34:00,73.2,70.1,30.03,SSW,196,0.0,0.0,90,0.00,,CLR,0.00,0.00,VWS V14.01,2013-08-09 01:34:00,
2013-08-08 21:39:00,73.2,70.1,30.03,SSW,196,0.0,3.0,90,0.00,,CLR,0.00,0.00,VWS V14.01,2013-08-09 01:39:00,
2013-08-08 21:45:00,73.1,70.3,30.03,SSW,196,0.0,0.0,91,0.00,,CLR,0.00,0.00,VWS V14.01,2013-08-09 01:45:00,
2013-08-08 21:50:00,73.1,70.3,30.03,South,190,0.0,1.0,91,0.00,,CLR,0.00,0.00,VWS V14.01,2013-08-09 01:50:00,
2013-08-08 21:55:00,73.0,70.2,30.03,South,190,0.0,2.0,91,0.00,,CLR,0.00,0.00,VWS V14.01,2013-08-09 01:55:00,
2013-08-08 22:00:00,73.0,70.2,30.03,South,178,0.0,0.0,91,0.00,,FEW120,0.00,0.00,VWS V14.01,2013-08-09 02:00:00,
2013-08-08 22:06:00,72.9,70.1,30.03,South,178,0.0,3.0,91,0.00,,FEW120,0.00,0.00,VWS V14.01,2013-08-09 02:06:00,
2013-08-08 22:11:00,72.9,70.1,30.03,South,178,0.0,0.0,91,0.00,,FEW120,0.00,0.00,VWS V14.01,2013-08-09 02:11:00,
2013-08-08 22:16:00,72.9,70.1,30.03,South,178,0.0,2.0,91,0.00,,FEW120,0.00,0.00,VWS V14.01,2013-08-09 02:16:00,
2013-08-08 22:21:00,72.9,70.1,30.03,South,178,0.0,0.0,91,0.00,,FEW120,0.00,0.00,VWS V14.01,2013-08-09 02:21:00,
2013-08-08 22:26:00,72.9,70.1,30.02,South,178,3.0,3.0,91,0.00,,FEW120,0.00,0.00,VWS V14.01,2013-08-09 02:26:00,
2013-08-08 22:31:00,72.8,70.0,30.02,South,175,0.0,3.0,91,0.00,,FEW120,0.00,0.00,VWS V14.01,2013-08-09 02:31:00,
2013-08-08 22:37:00,72.9,70.1,30.02,SSE,163,0.0,3.0,91,0.00,,FEW120,0.00,0.00,VWS V14.01,2013-08-09 02:37:00,
2013-08-08 22:42:00,72.9,70.1,30.01,SSE,163,0.0,1.0,91,0.00,,FEW120,0.00,0.00,VWS V14.01,2013-08-09 02:42:00,
2013-08-08 22:48:00,72.8,70.0,30.01,SSE,163,2.0,2.0,91,0.00,,FEW120,0.00,0.00,VWS V14.01,2013-08-09 02:48:00,
2013-08-08 22:53:00,72.8,70.0,30.01,SSE,163,0.0,3.0,91,0.00,,FEW120,0.00,0.00,VWS V14.01,2013-08-09 02:53:00,
2013-08-08 22:58:00,72.7,70.2,30.01,South,181,0.0,3.0,92,0.00,,FEW120,0.00,0.00,VWS V14.01,2013-08-09 02:58:00,
2013-08-08 23:03:00,72.6,70.2,30.01,South,181,0.0,2.0,92,0.00,,BKN120,0.00,0.00,VWS V14.01,2013-08-09 03:03:00,
2013-08-08 23:08:00,72.6,70.2,30.02,South,181,0.0,2.0,92,0.00,,BKN120,0.00,0.00,VWS V14.01,2013-08-09 03:08:00,
2013-08-08 23:14:00,72.4,69.9,30.02,South,181,2.0,2.0,92,0.00,,BKN120,0.00,0.00,VWS V14.01,2013-08-09 03:14:00,
2013-08-08 23:19:00,72.3,69.8,30.01,South,181,0.0,3.0,92,0.00,,BKN120,0.00,0.00,VWS V14.01,2013-08-09 03:19:00,
2013-08-08 23:24:00,72.2,69.8,30.01,South,182,0.0,4.0,92,0.00,,BKN120,0.00,0.00,VWS V14.01,2013-08-09 03:24:00,
2013-08-08 23:29:00,72.1,70.0,30.01,South,182,0.0,4.0,93,0.00,,BKN120,0.00,0.00,VWS V14.01,2013-08-09 03:29:00,
2013-08-08 23:34:00,72.0,69.9,30.01,South,182,1.0,3.0,93,0.00,,BKN120,0.00,0.00,VWS V14.01,2013-08-09 03:34:00,
2013-08-08 23:40:00,72.0,69.9,30.01,South,182,0.0,3.0,93,0.00,,BKN120,0.00,0.00,VWS V14.01,2013-08-09 03:40:00,
2013-08-08 23:45:00,72.0,69.9,30.01,South,182,1.0,2.0,93,0.00,,BKN120,0.00,0.00,VWS V14.01,2013-08-09 03:45:00,
2013-08-08 23:50:00,72.1,70.0,30.02,South,182,0.0,3.0,93,0.00,,BKN120,0.00,0.00,VWS V14.01,2013-08-09 03:50:00,
2013-08-08 23:55:00,72.2,70.1,30.01,South,182,0.0,2.0,93,0.00,,BKN120,0.00,0.00,VWS V14.01,2013-08-09 03:55:00,